Theta_e
355 354 351 354 356 356 344 344 346 347 347 348 347 347 349 349 348 351 350 351 352 351
357 355 354 355 356 356 345 342 342 346 349 347 346 346 349 350 349 351 353 351 351 349
358 357 357 357 351 351 352 347 340 343 347 346 346 346 347 346 348 348 348 350 350 350
355 354 352 352 352 351 352 351 350 348 346 344 345 345 345 345 345 345 347 348 347 347
350 351 351 350 351 353 351 350 348 346 344 342 341 342 341 341 345 344 344 345 347 346
347 349 349 350 350 350 348 348 346 345 342 337 336 340 343 343 342 341 342 342 342 344
346 348 348 349 348 348 348 346 346 345 344 340 337 336 339 341 342 342 341 342 341 341
348 349 349 347 347 347 347 347 347 345 343 343 340 335 337 337 337 339 339 340 339 339
348 349 347 347 346 346 346 347 345 344 343 341 338 321 326 332 337 336 337 338 339 339
349 347 347 346 346 345 345 346 344 343 343 341 341 322 322 326 339 337 338 338 339 335
348 347 347 346 346 346 345 344 344 344 343 342 340 321 318 322 338 338 338 338 337 336
347 347 347 346 347 347 345 348 346 346 345 343 343 317 315 323 337 336 336 336 334 333
349 348 347 348 348 348 348 347 346 345 346 337 344 314 312 321 334 333 333 337 336 318
349 349 349 350 349 348 348 348 347 346 346 346 341 338 310 312 335 335 335 333 333 333
Wind_Speed
5 3 5 4 5 4 3 3 5 3 0 3 3 3 4 6 6 4 5 6 6 5
7 5 3 2 3 3 6 5 5 3 2 2 1 3 3 2 4 5 4 4 5 6
6 5 3 3 6 8 9 11 8 8 6 5 4 3 4 3 2 4 4 4 5 5
6 6 5 5 7 8 10 10 9 6 4 4 4 4 3 3 3 4 3 3 4 4
6 7 7 6 7 8 8 8 8 6 5 2 1 1 3 3 1 2 4 5 5 5
9 9 7 6 7 7 8 8 8 7 6 5 3 3 3 3 3 4 4 5 4 5
10 9 8 7 7 6 6 7 7 6 6 6 5 4 4 4 4 3 4 4 5 5
10 9 8 8 8 7 6 6 6 6 5 6 6 5 5 4 4 3 3 4 3 5
11 11 9 8 8 7 6 6 6 7 6 5 4 8 4 2 4 3 2 2 2 4
13 11 10 9 9 7 6 7 8 7 7 5 3 6 4 3 3 4 3 1 1 3
14 12 11 10 9 7 7 9 8 7 6 5 5 7 7 5 5 4 4 3 2 3
15 13 13 11 11 9 9 8 9 7 8 7 5 9 7 8 4 3 4 4 4 4
12 16 14 13 12 11 10 9 8 7 7 7 8 12 9 9 7 6 7 5 5 5
14 13 12 12 11 11 11 9 9 7 7 8 9 9 12 12 10 8 7 6 6 5
Wind_Direction
162 198 228 202 214 208 170 185 98 102 232 267 259 250 253 250 262 281 264 263 240 254
172 188 241 206 218 176 123 117 98 286 158 231 223 283 253 273 274 290 283 280 269 260
162 158 131 129 118 139 137 142 153 197 208 189 188 203 259 233 201 293 291 283 279 267
133 116 145 145 130 143 139 155 166 163 181 190 192 197 226 266 278 283 330 320 316 313
122 129 144 153 141 150 142 143 137 141 142 115 57 221 208 203 128 28 8 5 347 1
141 142 154 159 146 145 149 148 145 144 138 130 117 95 118 127 100 69 48 19 13 3
158 156 157 153 151 155 161 160 149 148 141 133 115 92 70 57 81 93 86 60 30 19
160 164 154 163 161 158 172 169 163 158 169 164 156 144 131 109 84 53 66 64 54 60
170 168 169 170 165 164 179 186 178 170 178 200 219 128 162 183 123 108 82 87 76 123
174 175 172 169 168 165 198 200 193 177 174 187 180 167 236 239 179 181 157 171 223 222
170 176 172 174 169 168 202 211 204 186 183 197 188 171 208 234 258 231 218 232 218 288
170 179 175 178 172 180 203 210 211 201 193 210 210 175 197 213 241 289 232 214 236 244
180 177 181 180 179 181 206 210 220 200 206 200 224 162 184 218 220 209 243 210 213 195
186 189 180 184 182 189 201 219 211 215 215 221 210 184 185 209 252 250 216 239 199 204